マクノート彗星

P/2008 Y3 ( McNaught )

English version
Home page
Updated on September 2, 2011

---------------------------------------------------------------------

・ プロフィール

発見日 2008年12月31日
発見光度 16.3等
発見者 R. H. McNaught (Siding Spring)

・ 写真集

・ 軌道要素

The following orbital elements are taken from MPC 75710:

Epoch 2009 Jan. 9.0 TT = JDT 2454840.5
T 2009 Jan. 11.9899 TT                                  MPC
q   4.434238             (2000.0)            P               Q
n   0.0433272      Peri.  238.2816      -0.5931176      -0.5111651
a   8.028398       Node   262.9353      +0.7655760      -0.5972176
e   0.447681       Incl.   38.8136      -0.2492085      -0.6180950
P  22.7
From 142 observations 2007 Dec. 18-2010 July 2, mean residual 0".5.

・ 光度変化

        m1 = 8.0 + 5 logΔ + 10.0 log r

---------------------------------------------------------------------

軌道要素はMPCのEphemerides and Orbital Elementsに掲載されたものです。
光度グラフはComet for Windowsで作成したものです。

---------------------------------------------------------------------

Copyright(C) Seiichi Yoshida (comet@aerith.net). All rights reserved.